Погода в Кызылтепе

Узбекистан     40°02′14″N   64°51′04″E
темп.,
°C
ветер,
м/с
пор.,
м/с
влажн.,
%
обл.,
%
осадки,
мм/ч
давл.,
гПа
погр.,
м
28 июля, ср
ср2823:00+31ссв1320140 0.0 1003769
02:00+29ссв1119180 0.0 1002603
05:00+26ссв1018220 0.0 1002463
08:00+28ссв1116200 0.0 1003798
11:00+33ссв1113140 0.0 10021553
14:00+37ссв101180 0.0 10002077
17:00+38ссв111270 0.0 9992430
20:00+34ссв914110 0.0 1000326
29 июля, чт
чт2923:00+31ссв815150 0.0 1001344
02:00+29ссв714160 0.0 1001291
05:00+26ссв510180 0.0 1002191
08:00+30ссв711150 0.0 1003426
11:00+35с812144 0.0 10041613
14:00+37ссз1111150 0.0 10032692
17:00+36ссз11121843 0.0 10032479
20:00+32ссз7111863 0.0 1004304
30 июля, пт
пт3023:00+30ссз712175 0.0 1005280
02:00+28ссв916203 0.0 1005531
05:00+26св917230 0.0 1006470
08:00+27ссв1015210 0.0 10081209
11:00+32ссв1315160 0.0 10081768
14:00+35ссв1112120 0.0 10062329
17:00+35ссв1112100 0.0 10052591
20:00+32ссв712130 0.0 1005243
31 июля, сб
сб3123:00+29ссв1016160 0.0 1006448
02:00+27ссв915200 0.0 1005323
05:00+25ссв916240 0.0 1005356
08:00+27ссв1116210 0.0 1006660
11:00+33ссв1212140 0.0 10051398
14:00+37ссв109100 0.0 10032336
17:00+38ссв9990 0.0 10022687
20:00+33с611110 0.0 1002170
1 августа, вс
вс123:00+31с916110 0.0 1002332
02:00+28с815130 0.0 1002288
05:00+27ссв814170 0.0 1002245
08:00+30ссв1014150 0.0 1002412
11:00+37ссв1112100 0.0 10021415
14:00+40ссв9883 0.0 10002114
17:00+40ссв8870 0.0 9992684
20:00+35с59924 0.0 1000100